Starlink 5989

operational
NORAD ID: 56781 Int'l Des: 2023-078 Owner: SPXS Country: US Constellation: starlink
LEOCIRCULAR

Über Starlink 5989

Beschreibung wird geladen...

Live-Position

3D-Globus wird geladen...

Nächste Überflüge

Höhenverlauf

Altitude vs Time

uPlot chart will show altitude changes over time

Zweizeiliger Elementsatz

1 56781U 23078Q 25353.67976708 .00003112 00000-0 26836-3 0 9990
2 56781 69.9980 186.2615 0003049 270.9686 89.1124 14.98347389140694
Epoch: 19. Dez. 2025 • Age: 11 hours

Aktueller Status

Höhe 590.8 km
Geschwindigkeit 7.56 km/s
Subsatellitenpunkt -54.84°S, 97.83°W
Startdatum 31. Mai 2023
Alter 2.5 years
Typ internet

Technische Details

Klassifizierung Payload
Masse 305.00 kg
Trockenmasse 290.00 kg
Gesamtmasse 305.00 kg
Länge 0.20 m
Durchmesser 2.80 m
Spannweite 9.00 m
Form Box + pan
Hersteller SPXS
Bus-Typ Starlink
Phasenstatus In Orbit
Besitzer/Staat SPXS/US

Große Konstellationen

Loading constellations...